OBJECT A, 60203

Orbit data source: Space-Track

You're viewing an Uncataloged Satellite

Recently launched and/or uncataloged satellites may have evolving metadata. Metadata may include but not limited to: Owner, Maufacturer, Bus, Motor, and Mission.

OBJECT A, 60203 is an American satellite in SSO that was launched on Thu, 04 Jul 2024 UTC via an FIREFLY ALPHA launch vehicle from the Air Force Western Test Range (AFWTR). Unknown objects in Earth's orbit typically refer to objects detected orbiting the Earth but have not yet been identified or cataloged. These objects could be anything from previously untracked satellites, spent rocket stages, debris from satellite collisions, or even natural meteoroids temporarily captured by Earth's gravity.

Not visible in the next 10 days
Identifier
60203, 2024-125A
Orbit
SSO
Country
Flag of USUS
Related business
None
Manufacturer
Unknown
Mission
Operational Amateur Technology
Bus & Motor
Unknown
Mass
Unknown
Launch date (UTC)
2024-07-04 (2 years ago)
Launch vehicle
FIREFLY ALPHA
Launch site
Air Force Western Test Range (AFWTR)
Object type
Unknown
Shape & HBR
Box, 0.1 m
Radar Cross Section
0.025 m², Small (<0.1 m²)

Expand to show TLE details & history
Last TLE update: 16 hours ago

TLE from 16 hours ago
0 OBJECT A
1 60203U 24125A   26035.84252926  .00048533  00000-0  79081-3 0  9990
2 60203  97.2470 251.9158 0013129 348.0488  12.0452 15.52388279 89016
Epoch: 2026-02-04T20:13Z
TLE epoch observation values (Epoch: 2026-02-04T20:13:14.528Z)
Latitude
0.00005°
Longitude
173.60195°
Altitude
404.177 km
Speed
7.673 km/s
True Right ascension
16h 47m 39s
True Declination
0° 00' 00"
Sunlit
Object was in daylight at epoch
Visualization orbit readout
Latitude
Unknown
Longitude
Unknown
Altitude
Unknown
Speed
Unknown
Apparent Right ascension
Unknown
Apparent Declination
Unknown
Sunlit
N/A
Visualization observer readout
Local Sidereal Time
14:25:22
Azimuth
Unknown
Elevation
Unknown
Doppler factor
Unknown
Orbital elements
Apogee altitude
415.579 km
Perigee altitude
397.763 km
Semi-major axis
6,784.808 km
Eccentricity
0.00131
Inclination
97.247°
RAAN
251.9158°
Arg. of periapsis
348.0488°
True anomaly
12.07665°
Mean anomaly
12.0452°
Eccentric anomaly
12.06092°
Mean motion
3.88362 °/min
Orbital period
92.7 mins
BSTAR
0.00079081
Loading maneuver chart data...
Computing Atmospheric mass density...
Loading historical data...
Loading historical data...
Loading historical data...
Loading historical data...
Loading historical data...
Loading historical data...
Loading historical data...

Documentation

Showing up to 5 results
|